Find INTELSAT IVA F6

NORAD ID: 10778 Int'l Des: 1978-035 Owner: INTEL Country: I-INT operational
HEOCIRCULARGSO

Aktuelle Ansicht

3D-Globus wird geladen...

Über INTELSAT IVA F6

Beschreibung wird geladen...

Nächste Überflüge

Passes for default location (London). Set your location on the main map for personalized predictions.

Höhenverlauf

Loading altitude history...

Zweizeiliger Elementsatz

1 10778U 78035A 26146.25347622 -.00000289 00000-0 00000-0 0 9996
2 10778 8.8147 311.8493 0007159 317.0610 207.7017 1.00264955121945
Epoch: 26. Mai 2026 • Age: 9 hours

Aktueller Status

Höhe 35760.6 km
Geschwindigkeit 3.08 km/s
Subsatellitenpunkt -7.72°S, 141.78°E
Startdatum 31. März 1978
Alter 48.1 years
Typ communications

Technische Details

Klassifizierung Payload
Masse 769.00 kg
Trockenmasse 630.00 kg
Gesamtmasse 1480.00 kg
Länge 7.00 m
Durchmesser 2.40 m
Spannweite 7.00 m
Form Cyl + 2 Dish
Hersteller HSES
Bus-Typ HS-353
Phasenstatus Renamed
Besitzer/Staat INTEL/I-INT

Most Searched